Flushing, NY

2:31 PM EST on December 06, 2016 (GMT -0500)
La Guardia

Weather History for KLGA - May, 2014

Change the Weather History Date:

Saturday, May 31, 2014

  Actual Average Record
Temperature  
Mean Temperature 64 °F 67 °F  
Max Temperature 70 °F 76 °F 96 °F (1987)
Min Temperature 58 °F 59 °F 50 °F (1961)
Degree Days  
Heating Degree Days 1 2  
Month to date heating degree days 88 135  
Since 1 July heating degree days 5016 4648  
Cooling Degree Days 0 4  
Month to date cooling degree days 50 58  
Year to date cooling degree days 50 66  
Growing Degree Days 14 (Base 50)    
Moisture  
Dew Point 47 °F    
Average Humidity 57    
Maximum Humidity 69    
Minimum Humidity 45    
Precipitation  
Precipitation 0.01 in 0.14 in 1.77 in (1993)
Month to date precipitation 4.70 3.79  
Year to date precipitation 23.88 17.69  
Snow  
Snow 0.00 in 0.00 in T in (2002)
Month to date snowfall 0.0 0.0  
Since 1 July snowfall 52.4 26.9  
Snow Depth 0.00 in    
Sea Level Pressure  
Sea Level Pressure 30.16 in    
Wind  
Wind Speed 12 mph (NNE)    
Max Wind Speed 24 mph    
Max Gust Speed 30 mph    
Visibility 10 miles    
Events      
T = Trace of Precipitation, MM = Missing Value Source: NWS Daily Summary

Daily Weather History Graph

Daily Weather History Graph

Search for Another Location

Airport or City:

Trip Planner

Search our weather history database for the weather conditions in past years. The results will help you decide how hot, cold, wet, or windy it might be!

Date:

Astronomy

May. 31, 2014 Rise Set
Actual Time 5:26 AM EDT 8:20 PM EDT
Civil Twilight 4:54 AM EDT 8:52 PM EDT
Nautical Twilight 4:13 AM EDT 9:33 PM EDT
Astronomical Twilight 3:25 AM EDT 10:21 PM EDT
Moon 8:02 AM EDT (5/31) 10:35 PM EDT (5/31)
Length of Visible Light 15h 58m
Length of Day
14h 53m
Waxing Crescent, 8% of the Moon is Illuminated
May 31
Waxing Crescent
Jun 5
First Quarter
Jun 13
Full
Jun 19
Last Quarter
Jun 27
New

Hourly Weather History & Observations

Time (EDT) Temp. Dew Point Humidity Pressure Visibility Wind Dir Wind Speed Gust Speed Precip Events Conditions
12:51 AM 60.8 °F 50.0 °F 68% 30.07 in 10.0 mi North 12.7 mph - N/A   Clear
1:51 AM 61.0 °F 48.9 °F 64% 30.07 in 10.0 mi North 13.8 mph - N/A   Clear
2:51 AM 60.1 °F 48.9 °F 67% 30.06 in 10.0 mi North 15.0 mph - N/A   Clear
3:51 AM 60.1 °F 48.0 °F 64% 30.07 in 10.0 mi NNW 11.5 mph 20.7 mph N/A   Clear
4:51 AM 60.8 °F 48.2 °F 63% 30.08 in 10.0 mi NNW 13.8 mph - N/A   Clear
5:51 AM 60.1 °F 48.0 °F 64% 30.09 in 10.0 mi North 9.2 mph - N/A   Partly Cloudy
6:51 AM 60.1 °F 46.0 °F 60% 30.12 in 10.0 mi North 13.8 mph - N/A   Partly Cloudy
7:51 AM 62.6 °F 46.4 °F 55% 30.13 in 10.0 mi North 16.1 mph 23.0 mph N/A   Partly Cloudy
8:51 AM 63.0 °F 46.0 °F 54% 30.14 in 10.0 mi North 18.4 mph 26.5 mph N/A   Partly Cloudy
9:51 AM 64.9 °F 45.0 °F 48% 30.13 in 10.0 mi North 18.4 mph 25.3 mph N/A   Partly Cloudy
10:51 AM 66.0 °F 44.1 °F 45% 30.14 in 10.0 mi NNW 21.9 mph 27.6 mph N/A   Partly Cloudy
11:51 AM 66.9 °F 44.1 °F 44% 30.16 in 10.0 mi NNW 20.7 mph 25.3 mph N/A   Mostly Cloudy
12:51 PM 66.9 °F 44.1 °F 44% 30.16 in 10.0 mi North 17.3 mph 23.0 mph N/A   Mostly Cloudy
1:51 PM 66.9 °F 46.9 °F 49% 30.17 in 10.0 mi ENE 9.2 mph - 0.00 in   Mostly Cloudy
2:51 PM 68.0 °F 46.0 °F 45% 30.18 in 10.0 mi East 13.8 mph - N/A   Mostly Cloudy
3:51 PM 66.9 °F 54.0 °F 63% 30.19 in 10.0 mi NE 5.8 mph - 0.01 in   Mostly Cloudy
4:51 PM 66.9 °F 50.0 °F 54% 30.19 in 10.0 mi WNW 4.6 mph - N/A   Scattered Clouds
5:51 PM 68.0 °F 46.4 °F 46% 30.19 in 10.0 mi ENE 4.6 mph - N/A   Mostly Cloudy
6:51 PM 66.9 °F 48.0 °F 51% 30.21 in 10.0 mi ENE 8.1 mph - N/A   Mostly Cloudy
7:51 PM 62.1 °F 50.0 °F 65% 30.24 in 10.0 mi South 6.9 mph - N/A   Mostly Cloudy
8:51 PM 60.1 °F 48.9 °F 67% 30.25 in 10.0 mi South 9.2 mph - N/A   Mostly Cloudy
9:51 PM 60.1 °F 44.1 °F 55% 30.27 in 10.0 mi SSE 8.1 mph - N/A   Mostly Cloudy
10:51 PM 60.1 °F 39.9 °F 47% 30.29 in 10.0 mi SSE 6.9 mph - N/A   Overcast
11:51 PM 59.0 °F 41.0 °F 51% 30.30 in 10.0 mi SSE 4.6 mph - N/A   Scattered Clouds